Weather History for KN60 - November, 2011

Change the Weather History Date:

Tuesday, November 8, 2011

  Actual Average Record
Temperature  
Mean Temperature 32 °F -  
Max Temperature 48 °F 38 °F 73 °F (1999)
Min Temperature 16 °F 19 °F 3 °F (2008)
Degree Days  
Heating Degree Days 33    
Month to date heating degree days 232  
Moisture  
Dew Point 20 °F    
Average Humidity 62    
Maximum Humidity 92    
Minimum Humidity 31    
Precipitation  
Precipitation 0.00 in - - ()
Month to date precipitation 0.04  
Year to date precipitation 17.04  
Sea Level Pressure  
Sea Level Pressure 30.14 in    
Wind  
Wind Speed 5 mph (West)    
Max Wind Speed 18 mph    
Max Gust Speed 23 mph    
Averages and records for this station are not official NWS values.
T = Trace of Precipitation, MM = Missing Value Source: NWS Daily Summary

Daily Weather History Graph

Daily Weather History Graph

Search for Another Location

Airport or City:

Trip Planner

Search our weather history database for the weather conditions in past years. The results will help you decide how hot, cold, wet, or windy it might be!

Date:

Astronomy

Nov. 08, 2011 Rise Set
Actual Time 7:40 AM CST 5:18 PM CST
Civil Twilight 7:07 AM CST 5:51 PM CST
Nautical Twilight 6:30 AM CST 6:27 PM CST
Astronomical Twilight 5:54 AM CST 7:03 PM CST
Moon 4:02 PM CST (11/8) 5:36 AM CST (11/8)
Length of Visible Light 10h 43m
Length of Day
9h 37m
Waxing Gibbous, 96% of the Moon is Illuminated
Nov 8
Waxing Gibbous
Nov 10
Full
Nov 18
Last Quarter
Nov 25
New
Dec 2
First Quarter

Hourly Weather History & Observations

Time (CST) Temp. Windchill Dew Point Humidity Pressure Visibility Wind Dir Wind Speed Gust Speed Precip Events Conditions
12:52 AM 19.9 °F - 15.1 °F 81% 30.17 in - Calm Calm - N/A   Unknown
1:52 AM 19.9 °F - 16.0 °F 85% 30.14 in - Calm Calm - N/A   Unknown
2:52 AM 21.0 °F - 18.0 °F 88% 30.14 in - Calm Calm - N/A   Unknown
3:52 AM 19.0 °F - 16.0 °F 88% 30.13 in - Calm Calm - N/A   Unknown
4:52 AM 17.1 °F - 14.0 °F 88% 30.14 in - Calm Calm - N/A   Unknown
5:52 AM 16.0 °F - 12.9 °F 88% 30.14 in - Calm Calm - N/A   Unknown
6:52 AM 17.1 °F - 14.0 °F 88% 30.14 in - Calm Calm - N/A   Unknown
7:52 AM 18.0 °F - 16.0 °F 92% 30.15 in - Calm Calm - N/A   Unknown
8:52 AM 26.1 °F - 23.0 °F 88% 30.15 in - Calm Calm - N/A   Unknown
9:52 AM 33.1 °F 26.9 °F 27.0 °F 78% 30.14 in - South 6.9 mph - N/A   Unknown
10:52 AM 37.9 °F 32.1 °F 26.1 °F 62% 30.13 in - SW 8.1 mph - N/A   Unknown
11:52 AM 39.9 °F 32.5 °F 23.0 °F 51% 30.11 in - SW 12.7 mph - N/A   Unknown
12:52 PM 43.0 °F 36.4 °F 24.1 °F 47% 30.09 in - SW 12.7 mph - N/A   Unknown
1:52 PM 46.0 °F 40.6 °F 21.0 °F 37% 30.08 in - WSW 11.5 mph - N/A   Unknown
2:52 PM 48.0 °F - 19.0 °F 32% 30.07 in - West 15.0 mph 23.0 mph N/A   Unknown
3:52 PM 46.0 °F 39.0 °F 19.9 °F 35% 30.09 in - West 17.3 mph - N/A   Unknown
4:52 PM 41.0 °F 34.3 °F 21.0 °F 45% 30.12 in - West 11.5 mph - N/A   Unknown
5:52 PM 36.0 °F 29.6 °F 21.0 °F 55% 30.14 in - WNW 8.1 mph - N/A   Unknown
6:52 PM 33.1 °F 26.9 °F 21.9 °F 64% 30.17 in - WNW 6.9 mph - N/A   Unknown
7:52 PM 30.9 °F 22.8 °F 21.9 °F 69% 30.19 in - WNW 9.2 mph - N/A   Unknown
8:52 PM 28.9 °F 25.2 °F 21.9 °F 75% 30.19 in - WNW 3.5 mph - N/A   Unknown
9:52 PM 25.0 °F 18.1 °F 21.0 °F 85% 30.20 in - West 5.8 mph - N/A   Unknown
10:52 PM 28.9 °F 19.8 °F 23.0 °F 78% 30.19 in - WNW 10.4 mph - N/A   Unknown
11:52 PM 28.9 °F 18.6 °F 23.0 °F 78% 30.21 in - WNW 12.7 mph - N/A   Unknown